Theta_e
293 292 292 293 294 294 294 293 292 292 292 291 291 290 289 288 288 287 286 286 286 286 286 286 286 285 284 283 283 282 282 282 281 280 280 279 278 278 277 276 276 275 273 272 271 270 270 270 270 270 269 269 268 268 268 267 267 267 267 267 267 267 267 267 267 268 269 268 268 268 268 268 268 268 268 269 269 269 269 270 271 271 271 271 272
292 292 292 292 293 293 293 292 292 291 291 291 290 290 289 288 287 287 286 286 286 286 286 286 286 285 284 283 282 282 282 281 280 279 279 279 278 277 277 276 275 274 272 271 270 270 269 269 269 269 269 269 268 268 268 267 267 267 267 266 266 267 267 267 267 267 267 268 267 267 268 268 268 268 268 268 268 268 269 269 270 271 271 271 271
292 292 291 291 292 292 292 291 291 291 291 290 290 289 289 288 287 287 286 286 286 286 286 286 285 285 284 283 282 282 281 280 280 279 279 278 277 277 276 275 274 273 272 271 270 269 269 269 268 269 269 269 268 268 268 267 267 267 266 266 266 266 266 266 267 267 267 267 267 267 267 267 267 267 267 267 268 268 268 268 269 270 270 271 271
292 291 291 291 291 291 291 291 291 291 290 290 290 289 289 288 288 287 287 286 286 286 286 286 285 285 284 283 283 282 281 280 279 278 278 277 277 276 275 274 273 272 271 270 270 269 269 268 268 268 268 268 268 268 267 267 267 266 266 266 266 266 266 266 266 266 266 266 266 266 266 267 267 267 267 267 267 267 268 268 268 269 270 270 270
292 291 291 291 291 291 290 290 290 290 290 290 290 289 289 289 288 287 287 287 287 287 286 286 286 285 284 283 282 281 280 279 278 277 277 276 276 275 274 273 272 271 270 270 269 269 268 268 268 268 267 267 267 267 267 267 266 266 266 266 265 265 265 265 265 265 265 266 266 266 266 266 267 267 267 267 267 267 267 267 267 268 269 269 270
291 291 291 291 290 290 290 290 290 290 289 289 289 289 289 289 288 288 287 287 287 287 286 286 285 285 284 283 281 280 279 278 277 277 276 276 275 274 273 272 271 270 270 269 269 268 268 268 268 267 267 267 267 267 266 266 266 266 266 265 265 265 265 265 265 265 265 265 265 266 266 266 266 266 266 267 267 267 267 267 267 267 268 268 268
291 291 290 290 290 290 289 289 289 289 289 289 289 289 289 288 288 288 287 287 286 286 286 285 285 284 283 282 281 280 278 277 276 276 276 275 275 273 272 271 270 270 269 269 268 268 268 268 267 267 267 267 267 266 266 266 266 266 265 265 265 265 264 265 265 265 265 265 265 265 266 266 266 266 266 266 266 266 266 266 266 267 267 267 267
290 290 290 289 289 289 289 289 289 289 289 289 289 289 288 287 287 286 286 286 285 285 285 284 283 283 281 281 280 279 277 276 276 275 275 275 274 272 271 270 270 269 269 268 268 268 267 267 267 267 267 267 266 266 266 266 266 266 265 265 264 265 265 265 265 264 264 264 264 265 265 265 265 266 266 266 266 266 266 266 267 267 267 267 267
290 289 289 289 289 289 289 289 289 289 289 288 288 287 286 285 285 285 285 284 284 284 284 283 282 281 281 280 278 277 276 276 275 275 275 274 273 271 270 270 269 269 269 268 268 267 267 267 267 267 267 266 266 266 266 266 266 266 265 265 264 264 265 265 265 265 264 264 264 264 265 265 265 266 266 266 266 266 266 266 267 267 267 267 267
289 289 289 289 289 289 288 288 288 288 287 287 286 285 284 284 284 284 283 283 283 283 282 282 281 280 280 278 277 276 276 275 275 275 274 273 271 270 269 269 269 268 268 268 268 267 267 267 267 267 267 266 266 267 266 266 266 266 266 266 265 265 265 265 265 265 265 264 264 264 265 265 265 266 266 266 266 266 266 266 266 266 266 266 267
289 289 288 288 288 288 288 287 287 286 285 285 284 284 284 283 283 283 282 282 282 282 281 281 280 279 278 277 276 276 275 275 275 274 272 271 270 269 269 269 268 268 268 268 268 268 268 267 267 267 267 267 267 267 267 267 267 267 266 266 266 265 265 265 265 265 265 264 264 264 265 265 265 265 266 266 266 266 266 266 266 266 266 266 266
288 288 287 287 287 287 286 286 285 285 284 284 283 283 283 282 282 282 281 281 281 281 280 280 279 278 277 276 276 275 275 274 274 273 271 270 269 269 269 268 268 268 268 268 268 268 268 268 268 268 268 268 267 267 267 267 267 267 266 266 265 265 265 265 265 265 265 265 265 264 265 265 265 265 265 265 266 266 266 266 266 266 266 266 266
287 286 286 286 286 285 285 284 284 283 283 282 282 282 282 282 281 281 281 280 280 280 279 278 277 277 276 275 275 274 274 273 272 271 270 269 269 269 269 268 268 268 268 268 267 267 267 267 267 267 267 267 267 267 267 267 267 266 266 266 265 265 265 265 265 265 265 265 265 265 265 265 265 265 265 265 265 265 265 265 265 265 266 266 266
286 285 285 285 284 284 283 283 282 282 281 281 281 281 281 281 280 280 280 279 279 278 277 276 276 275 275 275 274 274 273 272 271 270 270 269 269 269 268 268 268 268 267 267 267 267 266 266 266 266 266 266 267 267 267 267 266 266 265 265 265 265 265 265 265 265 265 265 265 265 265 265 265 265 265 265 265 265 265 265 265 265 265 265 265
284 284 284 283 283 282 282 281 281 281 280 280 280 280 280 280 279 279 278 278 277 276 276 275 275 275 274 274 273 272 272 271 270 270 269 269 268 268 268 268 267 267 267 267 267 267 266 266 266 266 266 266 266 266 267 266 266 266 266 265 265 265 265 265 265 265 265 265 265 265 265 264 264 264 264 265 265 264 265 265 265 265 265 265 265
283 283 282 282 282 281 281 280 280 280 279 279 279 279 279 279 278 277 277 276 276 275 275 275 274 274 273 273 272 271 271 271 270 270 269 269 268 267 267 267 267 267 267 267 266 266 266 266 266 266 266 266 266 266 266 266 266 266 266 266 266 265 265 265 265 265 265 265 265 265 265 265 265 265 265 265 265 265 265 265 265 265 265 265 265
282 282 281 281 281 281 280 279 279 278 278 278 278 278 277 277 277 276 276 275 275 274 274 274 273 273 272 271 271 271 271 270 270 269 269 268 268 267 267 267 267 266 266 266 266 266 266 266 266 266 266 266 266 266 266 266 266 266 266 266 266 265 265 265 265 266 266 267 266 266 266 266 266 266 267 267 267 266 265 265 265 265 265 265 265
281 281 281 280 280 280 279 278 278 277 277 277 276 276 276 276 275 275 275 274 274 273 273 272 272 271 271 271 270 270 270 270 270 269 269 268 268 267 267 266 266 266 266 266 266 265 265 266 266 265 266 266 267 267 267 267 266 266 266 265 265 265 265 265 265 265 266 266 267 267 267 267 267 267 267 267 267 267 266 266 266 266 265 265 265
280 280 280 279 279 279 278 277 277 276 276 276 275 275 275 274 274 274 273 273 273 272 272 271 270 270 270 270 270 270 270 270 269 269 268 268 267 267 266 266 266 266 265 265 265 265 265 265 265 265 265 266 266 267 268 267 267 266 266 265 265 264 265 265 265 265 265 266 266 266 266 266 266 266 267 267 267 267 267 266 266 266 266 266 266
279 279 279 278 278 278 277 277 276 276 275 275 274 274 273 273 273 273 272 272 271 271 270 270 270 270 270 270 270 270 270 270 269 269 268 268 267 267 266 266 265 265 265 265 265 265 265 265 265 265 265 265 266 268 268 268 268 267 266 266 265 265 266 266 265 265 265 266 266 266 266 266 266 266 266 266 266 266 266 266 266 266 266 266 265
279 278 278 278 277 277 276 276 276 275 275 274 274 273 273 272 272 272 271 271 270 270 269 269 269 269 269 269 269 269 269 269 269 269 268 268 267 267 266 265 265 265 265 264 264 264 264 264 265 265 265 265 266 267 268 268 268 267 267 266 266 267 267 266 265 265 265 265 266 266 266 266 266 266 265 265 265 265 265 266 266 266 266 265 265
278 278 277 277 277 276 276 275 275 275 274 274 273 272 272 271 271 271 270 270 269 269 269 268 268 269 269 269 269 269 269 269 269 269 268 267 267 267 266 265 265 265 264 264 264 264 264 264 264 265 265 264 265 266 268 268 268 268 267 267 267 267 267 266 266 266 266 265 265 265 266 266 266 266 266 265 265 265 265 265 265 265 265 265 265
278 277 277 276 276 275 275 275 274 274 273 273 272 271 271 271 270 270 269 269 268 268 268 268 268 268 269 269 269 269 269 269 269 268 268 267 267 267 266 266 265 265 264 264 264 264 264 264 264 264 264 264 265 266 267 268 268 268 268 267 267 267 267 267 267 266 266 266 265 265 265 265 265 265 265 265 265 265 265 265 265 265 265 265 265
276 276 276 275 275 274 274 274 273 273 272 271 271 270 270 270 269 269 268 268 268 267 268 268 268 268 268 269 269 268 268 268 268 268 268 267 267 266 266 266 265 265 265 264 264 264 264 264 263 264 264 265 266 267 267 267 267 267 267 267 267 267 267 267 267 267 266 266 265 265 265 265 265 265 265 265 265 265 265 265 265 265 265 265 265
276 275 275 274 274 274 274 273 272 272 271 270 270 269 269 269 268 268 268 267 267 267 267 267 267 268 268 268 268 268 268 268 268 268 267 267 267 266 266 265 265 265 265 264 264 264 264 264 264 265 266 266 266 266 266 266 266 266 266 266 266 266 266 266 266 266 266 265 265 265 265 264 264 264 264 264 265 264 264 264 264 264 265 264 264
275 274 274 274 273 273 272 272 271 270 270 269 269 269 268 268 268 267 267 267 267 267 267 267 267 267 267 267 268 268 267 267 267 267 267 267 266 266 265 265 265 265 265 264 264 264 264 264 265 265 265 265 265 265 265 265 265 265 266 265 265 265 265 265 265 265 264 264 264 264 264 264 264 264 264 264 264 264 264 264 264 264 264 264 264
274 273 273 272 272 271 271 270 270 269 269 269 269 268 268 268 267 267 267 267 266 266 266 267 267 266 266 267 267 267 267 267 266 266 266 266 266 265 265 265 265 265 264 264 264 264 264 264 264 264 264 264 264 264 264 264 264 264 265 265 265 265 265 264 264 264 264 264 264 264 264 263 263 263 263 263 263 263 263 263 263 263 263 263 263
273 272 271 271 270 270 270 270 269 269 269 269 268 268 268 267 267 267 267 266 266 266 266 266 266 266 266 266 266 266 266 266 266 265 265 265 265 265 265 265 265 265 265 265 264 264 264 263 263 263 263 263 263 263 263 263 263 264 264 264 264 264 264 264 264 263 263 263 263 263 263 263 263 263 263 263 263 262 262 262 262 262 262 262 262
271 271 270 270 270 270 269 269 269 269 268 268 268 268 268 267 267 267 267 267 266 266 265 265 266 265 265 265 265 265 265 265 265 265 264 265 265 265 265 265 265 265 265 264 264 264 263 263 263 263 263 263 263 263 263 263 263 263 263 263 263 263 263 263 263 263 263 263 262 262 262 262 262 262 262 262 262 262 262 261 261 261 261 261 261
270 270 270 270 270 269 269 269 269 268 268 268 268 268 268 268 267 267 267 266 266 266 265 265 265 265 265 265 265 265 265 265 265 265 265 265 265 265 265 264 264 264 264 264 263 263 263 263 263 263 263 263 263 263 263 263 263 263 263 262 263 262 262 262 262 262 262 262 262 262 262 262 262 262 262 261 261 261 261 260 260 260 260 260 260
270 270 270 269 269 269 269 268 268 268 268 268 267 267 268 268 267 267 267 266 266 266 266 265 265 265 264 264 265 264 264 264 264 264 265 265 265 265 265 265 265 264 264 264 264 263 263 263 263 263 263 262 262 262 262 262 262 262 262 262 262 262 262 262 262 262 262 262 262 261 261 261 261 261 261 261 260 260 260 260 260 259 259 259 259
270 270 269 269 269 269 268 268 268 268 267 267 267 267 267 267 267 267 266 266 266 266 265 265 265 264 264 264 264 264 264 264 264 264 264 265 265 265 265 265 265 265 264 264 263 263 263 263 263 263 263 263 262 262 262 262 262 262 262 262 262 262 262 262 262 262 262 262 261 261 261 261 261 260 260 260 260 260 259 259 259 259 259 259 259
269 269 269 269 269 268 268 268 267 267 267 266 266 266 266 266 266 266 266 266 265 265 265 265 265 265 265 265 265 265 265 264 264 264 264 264 265 264 264 264 264 264 263 262 262 262 262 262 263 263 263 263 262 262 262 262 262 262 262 262 262 262 261 261 261 261 261 261 261 261 261 260 260 260 260 260 259 259 259 259 259 259 258 258 258
269 269 269 268 268 268 268 267 267 267 266 266 266 266 265 265 265 265 266 266 266 266 266 266 265 266 266 266 265 265 265 264 264 264 264 264 264 264 263 263 264 264 263 262 262 262 262 262 262 262 262 262 262 262 262 262 262 261 261 261 261 261 261 261 261 260 260 260 260 260 260 260 260 259 259 259 259 259 258 258 258 258 258 258 258
269 269 268 268 268 267 267 267 266 266 266 266 265 265 265 265 265 265 265 265 266 266 266 266 266 265 265 266 266 265 265 265 264 264 264 263 263 263 262 262 262 263 263 263 262 261 261 261 261 261 261 261 261 261 261 261 261 261 260 260 260 260 260 260 260 260 259 259 259 259 259 259 259 259 258 258 258 258 258 258 258 258 258 257 257
269 268 268 268 267 267 267 267 266 266 266 265 265 265 265 265 265 265 265 265 265 266 266 266 265 265 265 265 265 265 265 265 264 264 264 263 262 261 260 260 260 261 261 261 261 260 260 260 260 259 259 259 259 259 259 259 259 259 259 259 259 258 258 258 258 258 258 258 258 258 258 258 258 258 258 257 257 257 257 257 257 257 257 257 257
268 268 268 267 267 267 267 267 266 266 266 266 265 265 265 265 265 265 265 265 265 265 265 265 265 265 265 264 264 264 264 264 264 263 263 263 262 261 261 260 260 260 259 259 259 259 259 258 258 258 257 257 257 257 257 257 257 257 257 256 256 256 257 257 257 257 257 257 257 257 257 257 257 257 257 257 257 256 256 256 256 256 256 256 256
268 268 267 267 267 267 267 267 266 266 266 266 266 266 265 265 265 265 265 265 264 264 264 265 264 264 264 264 263 263 263 263 263 263 263 262 262 261 261 260 259 258 258 258 257 257 257 257 256 256 256 256 255 255 255 255 255 255 255 255 255 255 255 255 255 255 255 255 255 255 255 255 255 255 255 255 255 255 255 255 255 255 255 255 255
268 267 267 267 267 267 267 266 266 266 266 266 266 265 265 265 265 265 264 264 264 264 264 264 264 264 263 263 263 262 262 262 262 262 262 261 261 260 259 258 257 256 256 255 255 255 255 255 254 254 254 254 254 254 254 254 253 253 253 253 253 253 253 254 254 254 254 254 254 254 254 253 253 253 253 253 253 254 254 254 254 254 254 254 254
267 267 267 267 267 267 267 266 266 266 266 266 266 265 265 265 265 264 264 264 264 263 263 263 263 263 263 262 262 262 261 261 261 261 261 260 260 259 258 257 256 255 255 254 254 254 254 253 253 253 253 253 253 253 253 253 253 253 253 253 253 253 252 252 252 252 252 252 252 252 252 252 252 252 252 252 252 252 252 253 253 253 253 253 253
267 267 267 267 267 267 267 266 266 266 266 266 265 265 265 265 264 264 264 263 263 263 263 263 263 263 262 262 261 261 260 260 260 260 259 259 258 258 257 256 255 255 254 254 253 253 253 253 253 253 253 253 253 253 252 252 252 252 252 252 252 252 252 252 252 252 252 252 251 251 251 251 251 251 251 251 251 251 251 252 252 252 252 252 252
267 267 267 267 267 267 266 266 266 266 266 265 265 265 265 264 264 264 263 263 263 263 262 262 262 262 262 261 261 260 259 259 259 259 258 258 257 257 256 255 254 254 253 253 253 253 252 252 252 252 252 252 252 252 252 252 252 252 252 251 251 251 251 251 251 251 251 251 251 251 251 250 250 250 250 250 250 250 251 251 251 251 251 251 251
267 267 267 267 267 266 266 266 266 265 265 265 265 265 264 264 264 263 263 263 262 262 262 262 261 261 261 261 260 260 259 259 258 257 257 256 255 255 254 254 253 253 252 252 252 252 252 252 252 252 252 252 252 252 252 252 251 251 251 251 251 251 251 251 251 251 251 251 251 250 250 250 250 250 250 250 250 250 250 250 250 250 251 251 251
267 267 267 266 266 266 266 266 265 265 265 265 264 264 264 263 263 263 262 262 262 261 261 261 260 260 260 260 259 259 258 258 257 256 255 254 254 253 253 252 252 252 252 252 252 252 252 251 251 251 251 251 251 251 251 251 251 251 251 251 251 251 251 251 251 251 250 250 250 250 250 250 250 249 249 249 249 249 249 249 250 250 250 250 250
266 266 266 266 266 266 265 265 265 265 264 264 264 264 263 263 262 262 262 261 261 261 260 260 260 259 259 259 258 258 257 257 256 255 254 253 253 252 252 252 252 252 252 251 251 251 251 251 251 251 251 251 251 251 251 251 251 251 251 251 251 251 250 250 250 250 250 250 250 249 249 249 249 249 249 249 249 249 249 249 249 249 250 250 250
266 266 266 266 266 265 265 265 264 264 264 264 263 263 263 262 262 261 261 260 260 260 260 259 259 259 258 258 257 257 256 255 255 254 253 252 252 252 252 252 251 251 251 251 251 251 250 250 250 250 250 250 250 250 250 250 250 250 250 250 250 250 250 250 250 250 250 250 249 249 249 249 249 248 249 249 248 248 248 249 249 249 249 249 250
266 266 266 266 265 265 265 264 264 264 263 263 263 262 262 262 261 261 260 260 260 259 259 259 258 258 258 257 257 256 255 254 253 253 252 252 252 251 251 251 251 250 250 250 250 250 250 250 250 250 250 250 250 250 250 250 250 250 250 250 250 250 250 250 250 249 249 249 249 249 249 248 248 248 248 248 248 248 248 248 248 249 249 249 249
266 266 265 265 265 264 264 264 264 263 263 263 262 262 261 261 261 260 260 259 259 259 258 258 258 257 257 256 255 254 253 253 252 252 252 251 251 251 251 250 250 250 250 250 249 249 249 249 249 249 249 249 249 249 250 250 250 250 250 249 249 249 249 249 249 249 249 249 249 248 248 248 248 248 248 248 248 248 248 248 248 249 249 249 250
265 265 265 265 264 264 264 264 263 263 263 262 262 261 261 260 260 259 259 259 258 258 258 257 257 256 256 255 254 253 253 252 252 251 251 251 251 250 250 250 250 250 249 249 249 249 249 249 249 248 249 249 249 249 249 249 249 249 249 249 249 249 249 249 249 249 248 248 248 248 248 248 247 247 247 247 247 248 248 248 249 249 249 249 249
265 265 265 265 265 264 264 264 263 263 262 262 261 261 260 260 259 259 258 258 257 257 257 256 256 255 254 254 253 252 252 251 251 251 251 250 250 250 250 250 249 249 249 248 248 248 248 248 248 248 248 249 249 249 249 249 249 249 249 249 249 249 248 248 248 248 248 248 248 248 247 247 247 247 247 247 248 248 248 249 249 249 249 249 249
265 265 265 265 265 264 264 263 263 262 262 261 260 260 259 259 258 258 257 257 256 256 256 255 254 254 253 253 252 252 251 251 251 250 250 250 250 250 249 249 249 248 248 248 248 248 248 248 248 248 248 249 249 249 249 249 249 249 248 248 248 248 248 248 248 248 248 248 247 247 247 247 247 247 247 247 248 248 248 249 249 249 249 249 250
Wind_Speed
32 34 36 39 41 41 40 39 39 38 37 37 38 39 41 44 46 47 48 50 52 51 49 47 46 44 42 41 41 40 39 37 34 32 31 30 29 28 27 27 28 29 29 28 28 28 29 29 29 29 28 29 28 27 27 26 26 27 25 25 27 26 24 23 27 35 38 31 25 25 26 29 30 30 32 33 33 32 32 33 32 31 30 29 29
29 30 32 35 36 36 36 36 36 35 34 34 35 35 37 38 40 42 44 47 48 47 46 44 42 41 40 40 40 40 39 37 34 33 32 31 29 28 28 28 29 29 29 29 28 28 28 29 30 30 30 30 30 29 28 28 27 28 28 27 28 27 25 24 26 30 37 34 26 24 27 27 27 27 28 30 31 31 32 34 34 33 31 30 29
27 28 29 31 32 32 33 33 32 32 31 31 31 31 32 33 35 37 39 41 43 42 41 39 38 37 37 38 39 39 38 36 35 34 33 31 29 28 29 29 29 30 30 29 28 28 28 29 30 31 31 31 31 30 30 30 29 29 30 29 30 30 27 25 26 28 34 35 29 27 27 27 25 23 23 27 29 31 33 33 32 33 32 30 29
27 27 28 30 31 30 30 30 29 29 28 28 28 28 29 29 30 32 35 37 38 37 36 34 34 34 35 37 38 38 38 36 35 34 33 31 29 28 29 29 30 31 31 30 29 29 29 30 31 31 32 32 32 32 31 31 31 30 30 30 31 32 31 30 29 30 32 34 32 29 28 28 25 22 22 26 28 29 30 31 31 31 31 30 29
28 27 27 28 28 27 27 26 26 25 25 25 26 26 27 26 28 30 32 34 34 34 33 32 32 33 34 36 37 37 37 36 35 33 31 29 28 29 29 30 31 31 31 30 30 30 30 31 31 31 31 32 33 33 33 32 32 31 31 31 30 30 31 29 28 28 30 32 33 31 29 28 25 22 22 24 24 25 26 26 27 29 31 31 30
27 26 25 24 23 23 23 23 23 23 24 25 26 26 26 26 27 29 30 31 32 32 31 31 32 33 34 35 36 36 36 35 34 32 29 28 29 30 31 31 31 31 31 31 31 31 31 31 32 31 32 33 33 33 33 33 33 32 32 31 31 31 31 27 23 23 25 26 28 28 25 22 21 21 21 20 20 21 22 23 24 27 29 30 28
25 23 21 20 20 20 21 21 22 23 24 26 26 27 26 26 26 27 28 29 30 30 31 31 32 32 33 34 34 35 35 34 32 30 28 29 29 30 32 32 32 32 32 32 31 32 32 32 32 33 33 34 34 33 33 32 32 32 32 32 32 32 33 32 29 28 27 26 27 28 25 22 22 23 22 19 19 20 20 22 24 24 24 24 22
21 19 18 18 19 20 21 22 23 24 26 26 26 26 25 24 25 26 27 28 29 30 31 31 31 31 32 33 33 34 34 31 30 29 28 29 30 31 33 33 33 32 32 32 32 32 32 32 33 33 34 34 34 34 34 33 32 33 33 32 33 34 35 35 34 34 34 33 34 34 30 27 26 24 21 18 20 20 19 20 22 22 20 19 20
17 17 18 19 20 21 22 24 24 25 25 25 24 24 23 24 25 27 28 29 29 30 30 30 30 31 31 32 33 32 31 30 29 28 29 31 32 32 33 33 32 32 32 33 33 33 33 33 33 34 34 34 34 33 34 33 32 33 33 32 33 34 35 35 35 35 36 35 34 33 30 28 26 23 20 20 20 20 18 18 21 20 19 21 23
16 17 19 20 21 22 23 24 24 24 24 23 23 23 24 25 26 28 28 29 29 29 28 28 29 30 30 31 31 30 29 29 29 29 30 32 33 32 32 32 32 33 34 34 34 34 33 33 33 34 34 33 33 32 32 32 32 32 32 32 32 33 35 36 35 35 36 35 34 31 27 26 25 22 20 20 19 18 18 18 19 18 18 21 23
17 18 19 21 22 22 24 24 24 23 23 24 24 25 26 27 27 28 28 28 27 27 27 27 28 29 29 29 29 28 29 29 29 30 30 31 31 31 31 32 33 33 34 33 33 32 32 31 32 33 33 32 33 32 32 33 33 33 33 33 33 34 34 36 37 36 37 37 36 32 28 28 28 25 22 20 19 19 18 17 16 16 16 19 21
18 19 20 22 22 23 24 24 24 24 25 26 26 26 27 27 27 26 26 26 25 25 26 26 26 27 27 27 27 28 29 30 30 30 30 29 27 26 27 30 32 33 33 33 32 31 31 31 33 35 35 35 34 34 35 35 35 35 36 35 35 35 35 36 37 37 37 38 37 36 34 33 31 29 26 23 21 20 18 17 17 17 18 19 20
18 19 21 22 22 23 24 25 25 26 26 26 26 26 26 25 24 24 24 24 23 23 24 24 25 25 26 27 28 29 30 31 30 29 29 28 25 24 26 28 29 31 32 33 32 32 31 32 34 37 39 38 37 37 37 37 37 36 35 35 36 36 36 36 36 36 37 38 39 39 37 35 34 32 27 23 21 20 20 21 21 22 23 23 22
19 20 21 22 23 23 24 24 24 24 24 24 24 24 23 23 22 22 22 22 22 22 22 23 24 25 26 28 29 31 32 31 30 29 28 28 26 25 26 28 29 29 31 33 33 34 34 34 36 38 39 38 39 40 39 38 37 35 34 34 35 36 37 36 36 36 37 39 42 43 41 38 37 36 31 27 25 24 24 25 27 28 28 26 24
21 21 22 22 23 23 23 22 22 22 22 22 21 22 21 21 21 21 21 21 21 22 23 24 26 27 29 30 31 32 32 29 28 28 27 27 26 25 26 28 29 30 32 35 36 35 35 34 36 38 39 38 39 40 39 38 37 36 34 34 34 35 36 36 36 37 38 40 42 44 43 41 40 40 38 35 35 33 31 31 31 31 30 30 29
21 22 22 22 22 22 21 20 20 20 20 19 19 20 20 20 20 20 21 22 22 24 25 27 29 30 30 31 31 31 30 27 27 27 26 26 25 24 25 26 28 30 32 34 33 32 32 33 34 36 38 38 39 38 36 36 37 38 37 35 35 35 36 37 37 36 36 37 37 38 38 37 37 37 36 35 35 34 33 34 34 33 33 34 33
21 21 21 21 21 20 20 19 18 18 18 18 18 18 19 19 20 21 22 23 25 26 28 29 30 31 31 30 30 29 28 26 25 25 25 24 24 25 26 26 29 31 33 33 32 32 34 36 36 36 38 39 40 39 37 35 35 38 39 38 38 38 38 38 37 36 34 34 35 36 36 35 34 34 33 32 32 32 34 37 36 35 34 35 33
20 20 20 21 20 19 18 18 18 18 18 17 17 18 19 19 21 23 24 25 27 28 29 30 31 30 30 29 28 28 27 26 25 24 24 24 24 25 26 27 29 32 33 32 32 32 35 37 38 37 38 40 41 40 38 35 34 37 39 39 38 39 39 38 38 37 35 33 34 36 38 38 37 37 36 35 34 33 36 40 39 35 36 38 36
19 19 20 20 20 19 18 18 17 17 17 17 17 18 19 21 23 24 26 27 28 29 29 30 30 29 28 28 27 27 27 25 24 24 23 23 23 25 26 27 30 32 31 30 30 31 33 36 38 38 38 39 39 37 33 31 32 34 36 37 38 39 39 38 37 38 36 33 31 31 33 35 37 38 40 39 39 38 38 39 37 35 34 34 30
19 19 20 19 19 18 18 17 17 17 17 17 18 19 20 22 24 25 26 27 28 28 29 29 29 28 27 28 28 28 27 25 23 22 23 23 23 24 25 27 30 32 30 28 29 31 34 38 39 40 39 37 37 34 30 30 32 35 36 38 40 40 38 37 36 36 36 35 33 29 28 28 30 33 36 38 39 41 41 41 39 38 35 30 24
19 20 19 19 18 18 18 18 18 19 19 19 20 21 22 24 25 26 27 27 28 28 28 28 28 28 27 28 29 28 27 25 23 22 22 23 24 24 25 28 31 31 30 29 29 30 33 37 40 41 40 36 35 34 30 30 32 34 37 40 41 39 37 37 38 37 37 37 36 33 31 29 28 29 31 33 35 37 39 41 41 41 40 36 30
20 19 19 19 19 19 19 19 20 20 21 21 22 22 23 24 25 26 26 27 28 28 28 27 28 28 28 29 29 28 27 26 24 23 23 23 24 25 26 28 30 31 31 32 33 34 35 37 39 41 39 35 35 34 30 28 29 31 33 35 36 35 35 37 39 39 39 40 39 38 36 34 32 31 30 31 33 34 35 37 38 39 41 40 38
19 19 19 19 19 19 20 21 22 22 22 22 23 23 24 25 25 26 26 27 27 28 28 28 28 29 29 29 29 28 27 26 26 25 24 24 25 26 28 29 30 30 31 33 34 36 35 35 36 37 36 34 34 32 29 27 28 29 31 32 33 33 34 35 38 40 41 41 40 41 40 38 36 34 33 33 32 33 34 35 34 35 37 38 39
18 18 18 19 19 20 21 22 23 23 23 23 23 23 24 25 25 26 26 27 27 28 29 29 29 29 30 29 29 28 28 27 27 27 26 26 26 27 29 29 29 30 30 32 33 34 34 34 34 34 33 32 32 29 27 27 28 28 29 30 31 32 32 34 36 36 36 36 37 37 38 36 33 31 31 31 29 28 31 33 33 34 35 36 38
17 18 19 20 20 21 22 22 23 22 22 22 23 23 24 25 25 26 27 27 28 29 29 28 29 29 30 30 29 29 28 29 29 29 29 28 28 28 28 29 29 29 30 32 33 34 35 35 34 33 33 32 31 31 32 32 32 32 32 32 32 32 33 33 32 31 30 30 30 29 29 28 28 27 27 26 25 26 28 30 31 32 33 34 36
18 19 20 20 20 20 20 20 21 21 21 21 22 23 24 25 26 26 27 28 28 29 29 28 28 29 30 30 30 30 29 30 30 31 31 30 28 27 27 27 28 28 28 30 31 32 32 32 32 32 33 34 35 37 38 38 38 37 37 35 35 35 35 34 32 30 29 29 28 27 26 26 26 27 27 27 28 30 32 32 32 32 32 33 35
18 19 18 18 18 18 18 18 19 20 20 21 22 22 24 25 26 26 26 27 28 28 28 28 28 29 30 30 30 29 29 30 31 32 32 30 28 27 26 25 25 25 26 28 28 28 28 28 28 29 30 32 34 36 38 40 41 42 42 41 41 40 39 37 34 31 30 30 29 28 27 26 25 25 27 29 31 33 34 33 33 32 31 32 33
17 17 16 16 17 17 17 18 19 20 21 22 22 23 23 24 25 26 26 26 27 27 27 28 29 30 30 30 29 29 29 31 32 32 31 29 27 26 26 26 25 24 25 25 25 26 26 26 26 27 28 30 32 34 35 37 39 40 41 41 42 41 40 38 36 32 30 29 29 28 27 27 27 26 26 29 30 31 32 32 33 33 32 32 34
15 15 16 16 16 17 18 19 20 21 21 22 23 23 23 24 25 25 25 25 26 26 26 27 28 29 29 29 28 28 29 30 30 28 28 27 28 28 28 28 28 28 27 26 26 27 27 28 28 29 30 32 33 35 35 36 36 37 36 36 36 35 35 35 35 33 31 29 29 29 29 29 29 29 28 28 30 30 30 31 32 33 33 34 36
15 16 16 17 17 18 19 20 21 21 22 23 23 24 23 23 24 25 25 24 24 24 24 25 26 26 27 28 28 28 28 28 28 27 27 26 26 27 27 27 28 28 27 26 26 27 28 30 31 32 32 34 34 36 36 36 36 36 34 33 33 33 32 32 32 31 31 30 29 30 30 29 29 29 29 31 31 31 30 30 29 30 30 31 32
16 16 17 17 18 19 19 20 20 21 22 22 23 23 24 23 24 24 24 23 23 22 23 23 23 23 25 27 28 29 29 29 28 28 28 27 26 25 26 27 28 28 28 27 27 29 30 32 33 34 34 35 36 36 37 36 35 35 34 33 33 33 33 34 33 32 32 31 29 28 28 28 28 28 29 30 30 29 28 27 27 27 28 29 30
16 16 17 17 18 19 20 20 20 21 21 22 23 23 24 24 24 24 24 24 24 23 22 22 22 22 23 24 26 27 28 27 27 28 29 29 29 30 32 32 32 33 33 31 30 32 32 32 32 33 33 34 34 34 35 35 34 33 33 33 33 32 32 33 34 33 32 32 31 29 28 28 28 28 28 28 27 27 27 27 27 28 28 29 29
17 17 17 18 19 19 20 21 21 21 22 22 23 23 24 25 25 25 25 25 25 25 24 22 21 21 22 22 23 24 26 27 28 30 31 32 32 33 34 34 34 34 33 30 29 29 28 28 29 29 29 29 28 28 29 30 29 29 29 29 30 29 28 28 29 29 30 31 31 31 30 29 29 29 30 29 28 28 28 27 27 28 29 30 30
17 18 18 19 19 20 20 21 21 21 22 22 23 23 23 24 25 25 26 26 26 26 26 25 24 23 22 22 22 23 24 25 27 29 30 31 31 32 32 33 34 34 33 31 30 29 27 27 29 29 29 28 28 26 25 24 23 22 23 24 24 24 24 25 26 28 29 30 31 31 31 31 30 30 30 30 29 29 29 28 28 29 29 29 29
18 19 19 19 20 20 20 20 21 21 22 22 23 23 23 24 24 25 26 26 27 28 28 28 28 27 26 24 24 23 24 24 25 26 27 27 27 27 27 29 31 32 32 33 33 32 30 32 34 34 34 35 35 34 33 31 29 28 28 28 28 28 29 30 31 32 32 33 34 34 34 33 33 31 31 30 29 29 29 29 29 30 30 29 28
19 19 19 19 20 20 20 20 20 20 21 21 22 22 23 24 25 26 26 27 28 29 29 29 29 29 28 28 27 26 26 26 26 26 26 26 25 24 24 27 30 31 32 32 33 33 33 34 35 35 35 36 36 37 37 37 37 36 36 36 36 36 36 37 37 36 36 35 35 35 34 34 34 33 33 32 31 30 30 29 29 29 30 30 30
19 19 19 20 20 20 20 20 20 20 20 21 22 23 24 24 25 26 27 28 29 29 29 29 29 29 30 29 28 28 29 29 28 28 28 27 26 25 26 27 27 28 28 29 29 30 31 32 32 32 32 32 32 33 33 32 33 33 33 33 33 33 34 34 33 34 35 35 35 34 33 34 34 34 35 35 35 35 34 33 32 32 31 31 31
19 18 18 18 19 19 20 20 21 22 22 22 23 24 25 25 26 27 28 29 29 29 30 29 29 30 30 29 29 29 30 30 30 30 30 29 29 28 28 27 26 25 25 25 25 25 26 27 27 27 28 28 28 28 28 28 28 28 27 28 28 29 30 30 29 30 32 33 33 33 32 32 33 33 34 35 36 37 36 35 34 34 34 33 33
18 17 18 18 19 20 21 21 22 23 23 24 25 25 26 27 27 28 28 29 29 29 30 30 29 30 30 29 29 30 30 30 31 31 30 30 29 29 28 26 25 24 24 23 23 23 23 24 23 23 23 23 23 22 22 22 22 21 20 21 22 24 25 25 26 27 28 29 29 29 28 28 28 28 28 29 30 32 33 33 32 32 32 33 33
18 18 19 20 21 21 22 23 23 24 24 25 25 26 27 27 28 28 28 29 29 29 29 30 30 29 29 29 29 29 30 30 30 30 30 29 29 28 27 26 25 24 23 22 22 21 21 20 19 19 18 18 17 17 17 17 17 17 16 16 17 18 19 20 20 21 22 22 22 22 21 21 21 21 21 22 23 25 27 29 29 29 29 28 28
19 20 21 22 22 23 23 24 24 25 25 26 26 27 27 27 27 28 28 28 29 29 29 29 30 29 29 28 28 28 29 29 29 29 29 28 28 27 26 25 25 24 22 21 20 19 18 16 15 15 15 15 15 15 15 14 15 15 15 15 16 17 17 18 18 19 19 18 17 17 17 17 17 17 18 18 18 19 22 24 26 25 24 24 25
20 21 22 23 23 24 25 25 25 26 26 27 27 27 28 28 28 28 28 28 29 29 29 29 29 29 28 28 28 27 28 28 28 28 27 26 25 25 24 23 22 21 20 19 17 16 15 15 15 15 15 14 14 14 14 14 14 14 14 14 15 16 17 18 18 18 18 18 17 16 17 17 16 16 17 17 17 18 19 21 22 23 22 23 23
22 23 23 24 24 25 26 26 26 27 27 27 28 28 28 28 28 28 28 28 28 28 29 29 29 28 28 27 27 27 27 27 27 26 25 23 23 22 21 20 19 17 16 15 14 14 14 14 14 14 14 14 14 13 13 13 13 13 13 13 14 15 17 18 17 16 16 17 17 17 17 17 16 16 16 16 16 18 19 20 21 22 22 22 21
23 24 24 25 26 27 27 28 28 28 28 29 29 29 29 29 29 29 29 28 28 28 28 28 28 28 27 27 26 26 26 26 25 24 22 21 20 19 18 17 16 14 14 13 13 13 14 14 14 14 13 13 13 13 13 14 15 15 15 15 14 15 16 17 17 16 15 15 15 14 15 16 16 16 16 16 16 17 18 19 20 20 20 19 19
24 25 26 26 27 28 28 28 29 29 29 30 30 29 29 29 29 29 29 28 28 28 28 28 27 27 27 26 26 25 25 24 23 22 21 19 18 16 15 14 13 13 13 13 13 13 13 13 13 13 13 12 12 13 15 16 16 16 15 15 15 14 14 14 15 15 15 15 14 14 14 14 14 15 15 15 16 17 18 18 19 18 18 18 18
26 26 27 28 28 28 29 29 29 30 30 30 30 30 30 29 29 29 28 28 28 28 27 27 27 26 26 25 25 24 23 22 21 20 19 17 16 14 13 12 12 12 12 12 12 12 13 13 13 13 13 14 14 16 16 16 15 14 15 15 15 15 14 14 13 13 14 15 15 15 15 14 13 13 14 14 15 16 17 17 18 17 17 18 19
27 27 28 29 29 30 30 30 30 31 31 31 31 31 31 30 30 30 29 28 28 27 27 26 26 25 25 24 23 21 20 19 18 18 17 15 14 13 13 13 13 12 11 11 11 12 12 13 13 14 15 16 17 16 16 14 13 13 14 14 14 15 15 15 15 14 14 15 15 16 16 15 14 13 13 14 15 16 16 16 17 18 18 19 20
28 28 29 29 30 30 31 31 31 31 32 32 31 31 31 30 30 30 29 28 27 27 26 25 24 24 23 22 21 19 18 17 17 16 15 13 12 12 12 12 11 11 12 12 13 13 14 14 15 16 17 17 16 15 14 14 13 13 13 13 14 14 14 14 15 15 15 16 16 16 17 16 15 14 14 14 15 16 16 16 16 16 16 18 19
28 29 29 30 30 31 31 32 32 32 32 32 32 31 31 30 30 29 28 27 27 26 25 24 23 22 21 20 18 18 17 16 15 14 13 12 12 12 11 11 12 14 15 16 16 16 16 17 17 18 18 17 14 13 13 13 13 13 13 13 13 13 13 13 14 15 15 16 16 15 15 15 15 15 16 16 16 17 16 16 16 16 15 16 16
29 29 30 30 31 31 31 32 32 33 32 32 32 32 31 30 29 28 27 26 25 25 24 23 22 21 20 18 17 16 16 14 14 14 13 12 11 10 10 12 15 17 18 17 17 15 14 14 14 14 14 14 12 11 11 12 12 12 12 12 13 13 13 13 14 14 15 15 14 13 13 13 14 15 16 16 16 16 16 16 16 16 16 16 17
29 29 30 30 31 31 32 32 33 33 33 32 31 31 30 29 27 26 25 25 24 23 22 21 20 19 18 16 15 15 15 14 14 14 13 10 9 10 13 15 17 18 17 16 15 12 10 10 10 9 8 8 9 10 10 11 12 12 13 13 14 14 14 15 15 15 14 14 14 13 12 12 13 14 14 15 15 15 14 14 14 15 15 16 17
Wind_Direction
281 279 274 268 265 264 264 264 264 265 267 267 265 263 260 258 256 254 252 252 254 257 260 262 262 261 257 253 250 249 249 249 249 251 255 259 263 268 272 274 277 279 278 274 272 272 271 270 271 273 272 271 270 269 268 267 267 265 261 259 259 258 256 254 258 271 278 278 275 275 277 280 281 282 286 289 292 293 295 296 296 296 296 295 295
283 279 275 271 269 267 266 265 265 267 269 269 268 265 262 260 259 256 255 256 259 261 262 262 261 259 255 251 248 248 248 248 249 251 255 258 262 267 271 273 274 275 274 270 267 267 267 267 270 272 273 271 270 269 268 266 264 264 262 260 261 260 257 255 258 266 274 277 276 276 278 279 279 281 284 286 288 290 292 294 295 295 296 296 296
287 281 276 273 272 271 268 268 268 270 271 271 270 269 267 265 263 261 259 260 261 262 262 261 260 256 253 250 248 247 246 247 249 252 255 258 262 267 270 272 272 273 271 268 264 263 262 263 266 270 271 271 271 271 271 270 266 265 264 262 262 263 259 255 256 261 270 275 275 275 276 277 277 276 278 281 285 288 289 291 293 294 296 296 296
290 283 277 275 273 271 270 270 271 272 273 274 274 273 272 270 267 264 262 262 262 262 262 261 259 254 250 248 247 246 246 246 248 251 254 259 264 268 269 270 271 271 269 266 263 261 260 260 263 266 268 269 271 271 271 271 270 268 268 266 264 265 264 261 260 262 266 271 273 274 274 276 275 270 271 278 284 286 287 290 292 294 296 297 298
290 285 280 276 273 272 271 271 273 275 276 277 278 278 277 273 268 264 263 262 263 263 263 260 257 253 249 247 246 245 245 246 248 250 254 260 265 268 268 269 269 268 267 266 265 264 262 262 265 264 263 264 268 270 271 271 271 269 269 268 266 266 267 265 263 262 263 267 271 273 274 274 272 268 270 276 280 281 283 287 290 292 295 298 300
290 285 280 277 274 274 275 277 279 280 281 281 282 281 277 271 266 264 263 263 263 264 262 259 256 252 249 247 244 243 245 246 248 251 255 262 267 268 267 267 266 264 264 265 265 266 266 267 267 265 262 263 266 268 268 268 269 270 270 269 267 266 264 261 258 257 259 261 266 270 270 268 265 266 269 270 272 275 278 280 281 285 292 298 300
289 283 278 277 278 280 282 283 284 284 284 283 281 278 273 268 265 264 264 263 263 263 261 258 255 252 249 245 243 243 244 246 249 253 259 265 268 266 265 265 265 264 265 266 266 267 268 267 267 264 263 265 267 268 267 267 269 271 271 269 268 266 264 262 259 257 258 260 262 264 264 263 264 267 269 268 266 268 271 274 278 283 289 293 293
285 282 281 282 286 287 286 284 283 283 281 279 276 272 268 266 266 266 266 265 263 261 260 257 254 251 246 243 242 242 244 247 251 257 263 268 268 265 264 265 265 266 267 268 267 267 267 266 265 264 264 266 269 269 269 269 272 272 270 269 268 267 265 264 263 262 261 262 262 264 265 266 266 266 266 265 262 261 263 267 274 280 283 282 280
285 286 288 289 289 287 284 282 281 279 277 274 271 269 269 269 268 268 267 265 262 260 258 255 252 248 244 241 241 243 246 250 255 262 269 271 268 266 266 267 267 268 269 269 269 268 268 267 266 265 266 267 270 272 271 271 270 269 268 267 266 266 266 266 264 264 263 261 261 263 263 263 262 260 259 257 257 260 261 262 266 271 273 274 277
290 292 292 290 288 285 283 281 280 277 274 273 273 274 275 274 271 270 268 265 262 259 256 252 250 247 244 242 242 246 251 257 264 271 274 273 271 268 267 266 267 268 269 269 269 269 268 268 268 268 268 269 270 270 269 268 267 266 266 265 263 263 264 265 264 264 263 260 259 258 256 255 256 254 255 256 255 257 258 257 261 266 270 275 279
295 295 293 290 287 284 281 279 277 277 277 279 280 280 279 276 273 271 268 264 261 257 254 250 248 246 245 245 248 252 258 264 271 276 274 271 270 270 269 268 268 268 268 268 269 270 269 268 268 268 268 269 269 269 267 267 267 267 267 267 265 263 262 263 264 263 262 260 259 256 252 253 256 255 255 257 256 255 255 255 259 264 267 271 277
297 295 291 287 284 281 279 279 280 281 282 283 283 281 278 275 273 270 266 262 258 254 251 249 247 247 248 250 255 260 265 271 275 275 272 268 264 261 265 269 270 272 273 273 273 273 272 272 272 272 272 271 270 270 269 267 267 268 268 268 266 264 263 263 264 264 263 262 260 258 256 257 259 258 257 256 254 252 252 252 254 259 262 264 268
297 292 287 284 282 281 282 283 284 285 284 282 280 278 276 274 270 266 262 259 255 252 250 249 248 250 253 257 262 266 270 274 274 272 269 266 259 253 256 261 263 268 274 276 277 275 274 273 273 274 275 275 275 274 273 273 272 270 269 267 265 263 262 262 262 262 264 264 263 261 260 260 259 259 258 255 252 250 250 252 254 258 262 262 263
296 291 288 286 285 286 286 287 286 284 282 280 277 276 274 270 266 262 258 256 254 252 251 251 253 256 260 264 268 271 273 273 272 269 266 264 260 255 255 256 257 259 263 266 268 270 272 272 272 272 274 275 276 277 277 277 276 273 270 265 262 262 261 260 258 256 255 257 260 263 265 264 261 261 261 257 253 252 252 253 257 263 267 267 264
296 292 291 290 290 290 290 287 285 282 279 277 275 273 270 267 263 260 258 256 255 254 255 257 260 262 266 270 271 272 273 271 269 267 265 265 264 260 257 257 257 257 257 259 262 264 266 267 269 271 272 273 276 278 278 279 279 277 274 270 266 264 263 262 260 257 254 252 253 257 260 262 262 263 264 262 260 259 259 259 261 266 268 268 266
295 294 294 294 294 293 291 287 283 280 277 275 273 271 268 266 263 260 259 258 258 259 260 263 266 268 271 272 272 271 271 270 268 268 267 268 269 265 260 257 257 257 258 260 261 261 259 259 261 265 268 270 272 272 274 276 278 277 276 274 272 269 267 267 267 265 264 261 258 258 259 260 261 263 265 265 264 263 261 260 261 263 264 265 265
296 296 296 296 294 292 290 286 282 279 276 274 271 270 268 266 263 261 260 261 261 263 265 268 271 273 273 272 271 271 271 270 270 270 270 270 269 265 260 259 259 260 262 262 260 259 259 260 259 259 262 266 267 268 269 269 268 270 272 272 272 270 270 271 270 267 265 261 261 263 265 266 266 265 266 266 266 264 258 256 258 260 259 260 262
297 297 296 295 294 292 289 286 283 279 277 275 272 270 268 266 263 262 263 264 266 269 271 273 274 274 273 272 272 272 272 272 271 270 270 270 268 265 261 260 261 263 265 265 262 260 262 264 265 263 263 268 270 272 272 268 260 259 264 267 268 269 271 273 271 269 267 262 257 257 259 260 261 261 261 259 258 258 254 254 257 258 255 256 259
297 296 296 295 294 292 289 287 285 282 281 280 276 273 270 266 265 266 267 269 272 274 275 275 275 274 273 273 272 272 272 273 272 271 271 270 269 266 262 259 261 262 263 264 263 262 263 265 267 266 266 270 275 276 276 272 264 258 259 261 261 264 270 274 271 270 271 270 265 259 255 253 252 254 254 252 249 249 248 250 253 252 251 253 253
294 295 295 295 293 291 290 289 287 287 286 285 281 276 272 270 269 271 273 275 276 277 276 276 275 274 274 274 274 273 273 273 272 271 272 271 270 268 263 259 261 262 261 261 262 263 265 267 269 271 270 270 273 275 271 267 265 263 260 258 257 262 269 271 269 270 272 274 274 271 264 258 253 251 251 249 247 246 246 247 247 247 249 250 246
292 294 294 293 292 290 290 289 288 288 288 286 283 278 275 274 274 276 277 278 278 277 276 276 275 274 274 273 274 275 275 276 275 273 272 272 271 269 264 260 262 263 261 260 260 260 264 268 270 274 275 272 272 274 269 262 262 263 262 261 261 265 268 266 264 266 269 270 273 273 269 265 260 254 252 250 248 247 246 246 247 248 249 250 247
292 293 293 293 291 290 290 289 288 288 287 286 283 280 277 277 277 278 279 279 278 277 276 275 274 273 274 274 275 277 278 278 276 274 273 273 273 271 267 264 266 265 262 261 262 262 264 267 269 273 275 272 272 276 275 267 264 264 264 264 264 265 266 264 264 265 265 265 266 266 266 267 265 261 257 254 252 251 249 247 247 249 251 251 251
293 294 294 293 291 290 289 288 288 288 286 285 283 280 279 279 279 279 280 279 279 278 276 274 273 272 274 275 277 280 281 280 279 277 275 275 275 273 271 269 269 268 263 261 264 265 266 266 268 270 271 271 274 276 273 267 264 263 261 261 261 262 263 263 262 260 260 260 260 259 261 263 263 261 259 257 256 255 253 252 249 249 251 252 253
296 296 294 293 292 290 289 288 287 287 285 284 282 280 280 281 281 281 281 280 279 277 275 274 274 275 277 279 280 282 284 283 281 280 279 279 278 278 276 273 272 268 262 259 260 261 262 263 264 267 270 274 278 278 272 268 267 265 263 261 259 258 257 257 257 254 251 251 252 253 254 254 253 252 252 253 253 251 252 254 254 252 251 251 252
299 298 296 295 294 293 291 290 288 287 286 284 283 282 282 282 283 282 282 280 278 277 276 275 276 277 280 282 284 286 287 287 285 283 283 283 283 281 279 276 274 269 264 262 260 260 262 265 267 270 272 272 273 271 268 266 263 261 260 259 258 255 253 253 254 254 249 244 243 244 244 242 241 241 243 244 243 241 243 249 253 255 254 254 254
302 302 301 300 298 296 295 293 290 289 286 285 284 284 283 283 283 282 281 280 279 279 279 279 279 280 281 283 286 288 289 288 287 286 286 288 287 284 280 277 276 274 270 269 269 268 269 270 269 268 266 263 262 262 262 262 260 258 257 256 255 256 256 255 254 254 252 248 245 244 242 242 243 244 245 244 241 241 244 248 253 256 256 256 257
306 306 305 303 302 300 297 295 293 291 288 287 285 284 283 283 283 282 281 281 281 282 282 283 282 282 282 284 286 287 287 287 287 288 290 291 288 285 281 278 277 276 275 275 276 277 277 276 274 271 267 264 261 260 259 259 259 259 257 256 255 256 258 258 257 255 253 252 251 250 248 248 247 247 246 246 245 247 250 252 253 255 256 256 257
309 308 307 305 303 302 299 297 295 293 292 291 289 287 287 286 284 284 283 282 282 282 283 283 283 283 285 287 288 288 286 287 288 290 291 292 291 290 289 286 283 281 280 281 284 285 283 281 277 274 271 268 265 263 262 260 260 259 259 258 258 257 258 259 258 255 253 251 250 250 249 249 249 248 246 245 243 244 247 249 252 255 256 255 254
311 308 308 306 304 303 302 299 297 295 294 293 291 290 290 289 287 286 285 284 284 283 282 282 282 283 284 285 285 286 285 285 287 290 291 292 293 294 294 294 294 293 291 291 293 291 286 282 278 274 272 270 268 267 266 265 264 263 262 260 259 258 256 256 254 251 250 249 247 248 250 250 251 249 245 240 238 238 242 247 251 255 254 252 252
314 313 313 312 309 307 305 302 301 300 298 297 296 294 293 292 290 289 288 287 286 284 282 282 283 284 285 286 287 287 287 287 287 288 287 286 286 287 287 288 289 290 291 293 292 287 282 279 277 274 272 270 269 268 268 267 266 265 262 259 257 256 255 253 251 249 250 250 249 250 251 251 249 247 242 240 242 244 246 248 249 249 248 247 248
318 317 316 314 311 310 307 305 304 303 301 301 300 299 297 296 293 293 293 292 289 288 286 287 288 288 285 286 289 291 292 293 291 289 288 287 286 282 278 274 273 273 275 278 279 277 277 275 274 273 271 268 267 267 267 266 264 263 261 258 256 255 255 254 253 251 251 251 250 249 249 249 247 244 242 243 245 246 246 246 245 243 243 244 246
319 318 315 312 311 309 308 307 306 305 304 303 302 302 301 300 299 299 299 298 297 295 293 291 290 286 280 277 278 280 282 283 283 282 283 282 279 276 273 272 273 274 274 274 272 270 269 268 269 270 269 266 264 264 264 263 260 259 258 256 254 254 253 254 254 253 252 252 251 249 248 247 244 242 241 242 243 243 244 245 243 242 243 245 246
319 318 314 312 312 310 309 309 307 307 306 305 304 304 303 303 303 302 301 300 299 299 298 296 292 288 283 279 276 273 272 271 271 272 274 274 274 275 276 276 275 275 276 275 271 268 265 263 262 263 264 263 260 258 258 258 255 253 252 251 251 251 250 250 251 250 248 250 250 248 247 247 245 242 242 242 241 242 243 243 242 242 244 245 246
319 318 315 314 313 311 310 310 308 307 307 306 305 306 305 304 305 304 304 304 303 303 303 303 301 298 294 289 285 281 277 275 274 273 273 274 276 277 277 276 274 272 271 270 268 267 265 263 262 260 258 257 255 252 250 246 241 240 240 239 239 240 240 240 242 243 245 248 250 248 247 247 246 243 243 242 241 241 241 240 240 241 242 243 244
318 317 316 315 313 312 311 311 309 309 309 308 307 307 306 306 305 305 306 306 306 306 306 307 307 307 304 300 297 293 289 285 283 281 281 282 282 281 279 277 275 274 273 272 271 270 267 265 265 264 262 260 259 258 256 252 248 246 245 244 243 244 245 246 249 250 250 251 252 251 250 249 247 245 244 243 242 241 242 242 242 242 243 244 245
318 318 317 315 314 314 314 313 312 311 310 308 308 307 306 306 305 305 306 305 305 306 307 307 308 308 306 306 304 301 299 297 295 293 293 292 290 285 279 276 276 277 278 277 276 274 272 270 270 270 269 268 268 267 266 264 262 261 261 260 260 260 259 259 258 256 254 252 251 251 250 249 248 247 247 247 246 245 245 245 244 245 246 246 247
320 319 318 317 317 318 317 316 315 313 311 309 308 307 306 306 306 306 306 305 306 306 306 306 308 307 307 308 308 305 305 304 302 300 299 296 294 288 283 281 281 280 279 279 277 275 274 273 272 271 270 270 271 270 270 269 268 267 266 265 263 262 261 260 259 257 256 255 254 252 250 249 248 248 248 249 250 250 250 250 249 249 249 248 249
320 319 319 319 319 319 319 318 317 315 314 312 311 309 308 308 307 306 306 306 306 306 306 307 307 307 308 309 308 306 306 306 304 303 302 301 301 300 298 296 294 290 287 286 283 280 279 279 278 277 276 276 275 274 273 272 271 270 268 266 263 261 259 257 255 255 255 255 255 254 253 252 251 250 249 250 250 251 252 251 250 250 249 247 248
322 321 322 321 320 320 319 318 317 316 314 313 312 310 309 308 307 307 307 306 305 306 306 306 307 307 308 308 307 307 307 306 305 305 304 304 304 304 302 300 298 295 294 292 287 285 285 284 282 281 280 279 278 276 275 274 273 270 267 263 261 260 260 259 257 255 254 255 255 256 257 256 255 253 251 249 249 249 249 248 247 247 246 246 247
324 324 324 323 321 320 319 318 317 316 314 313 312 311 309 308 307 306 306 305 305 305 306 305 306 307 307 307 307 307 306 305 305 304 305 305 304 303 300 297 294 292 291 289 287 286 285 282 279 277 275 273 271 269 268 268 268 266 262 258 255 255 258 261 259 256 256 257 258 258 257 256 254 251 247 243 242 243 244 244 243 243 243 244 245
325 325 324 324 322 320 319 319 318 317 315 313 312 310 308 308 307 306 305 305 305 305 305 305 306 307 307 308 308 308 306 305 305 305 304 303 301 299 297 295 294 293 293 291 288 285 281 276 274 273 271 269 267 266 265 264 262 261 260 256 253 254 257 258 257 256 257 258 258 256 253 251 248 245 242 239 238 237 239 241 241 239 238 240 242
326 325 324 323 321 320 320 319 318 317 315 313 311 310 309 309 308 306 305 305 305 305 305 305 306 307 308 308 308 307 305 304 304 303 302 301 301 299 298 297 297 297 294 290 286 281 277 275 274 274 273 271 270 269 267 265 263 262 261 258 256 257 260 261 261 262 263 263 260 257 255 253 249 245 244 242 239 236 236 238 239 237 235 237 239
325 325 323 322 321 320 320 320 318 317 315 313 312 311 310 308 307 306 305 305 306 306 306 306 307 308 308 308 308 306 305 304 304 305 305 304 303 302 300 299 297 294 289 283 279 277 277 276 276 276 275 273 272 271 268 266 265 264 263 261 259 258 261 263 262 261 264 267 267 263 262 260 256 251 248 244 242 241 239 239 240 240 239 239 240
325 324 323 322 322 322 321 320 319 317 316 315 313 312 310 308 308 308 307 307 308 307 307 307 308 308 308 309 308 307 307 307 308 307 306 306 304 302 299 296 291 287 281 278 277 278 278 277 277 278 276 274 273 270 268 269 271 270 267 266 265 264 265 265 263 259 259 262 262 260 262 265 265 263 257 248 242 243 243 241 240 241 239 237 236
326 324 323 322 322 321 321 320 319 317 317 315 313 312 312 310 309 309 309 308 308 308 308 308 309 309 310 310 309 309 309 308 308 308 308 306 303 298 292 288 285 282 281 280 281 281 279 278 278 279 278 277 276 274 272 274 274 271 268 266 266 264 264 265 264 259 254 253 252 254 260 266 269 270 265 254 243 242 244 243 242 240 237 235 234
325 324 323 322 322 322 322 321 319 318 317 316 314 313 313 311 311 310 310 309 309 308 308 309 309 309 310 310 310 310 309 308 308 309 308 305 299 292 286 283 281 282 282 283 283 282 281 280 280 279 279 280 281 279 276 274 272 269 268 268 267 266 264 262 259 253 249 251 254 257 262 265 264 262 259 252 243 241 243 245 245 243 239 238 241
324 324 324 324 324 324 323 322 321 319 318 317 316 314 313 313 312 311 310 310 309 309 309 309 310 310 310 311 311 310 309 308 307 307 304 299 292 287 284 283 284 285 286 285 286 286 284 280 279 280 282 285 285 281 277 273 270 268 269 272 273 271 268 263 258 254 253 257 260 262 265 267 261 251 248 247 246 245 246 248 249 247 243 242 244
326 326 326 326 325 324 324 323 321 320 319 318 316 315 314 313 312 311 311 311 311 310 310 311 311 311 312 312 311 310 310 307 304 302 299 292 286 285 285 285 284 283 283 283 285 287 286 282 281 283 286 287 285 282 279 277 273 269 270 272 274 272 268 264 260 259 260 263 265 268 270 269 258 245 240 244 250 254 254 251 250 249 247 247 248
327 327 327 327 326 325 324 323 322 321 320 318 317 316 315 314 313 312 312 312 312 312 312 312 312 313 313 312 310 310 310 306 301 298 293 287 286 288 286 282 279 280 285 289 293 293 291 289 286 285 284 282 279 278 279 278 275 273 273 273 271 269 266 264 262 262 263 265 268 271 272 267 257 248 245 248 254 259 258 252 248 245 243 245 248
327 328 328 327 327 325 324 323 323 321 320 319 317 316 316 314 314 314 314 313 313 313 313 313 313 313 312 312 311 310 308 303 297 294 292 290 290 288 280 278 283 290 296 301 303 302 301 301 299 292 285 278 273 273 276 276 274 274 274 271 268 267 266 265 264 264 264 266 269 272 272 266 259 255 254 255 257 258 256 252 250 247 244 243 245
328 329 328 328 327 326 325 325 324 322 321 319 318 317 316 315 315 315 314 314 314 314 313 313 313 312 312 312 310 306 303 299 296 295 294 291 286 281 280 287 296 302 305 308 308 305 303 309 312 308 297 284 277 275 275 275 274 275 274 272 271 270 269 267 263 261 262 264 267 271 274 271 264 260 258 258 258 258 256 254 251 248 246 246 249